Change the Weather History Date:

Sunday, September 30, 2012

  Actual Average Record
Temperature  
Mean Temperature 62 °F 52 °F  
Max Temperature 78 °F 65 °F 86 °F (1980)
Min Temperature 45 °F 38 °F 20 °F (1985)
Degree Days  
Heating Degree Days 3 13  
Month to date heating degree days 85 219  
Since 1 July heating degree days 87 259  
Cooling Degree Days 0 0  
Month to date cooling degree days 36 27  
Year to date cooling degree days 779 472  
Growing Degree Days 12 (Base 50)    
Moisture  
Dew Point 33 °F    
Average Humidity 37    
Maximum Humidity 54    
Minimum Humidity 19    
Precipitation  
Precipitation 0.00 in 0.04 in 1.93 in (1944)
Month to date precipitation 0.35 1.05  
Year to date precipitation 5.03 9.93  
Snow  
Snow 0.00 in 0.20 in - ()
Month to date snowfall 0.0 2.7  
Since 1 July snowfall 0.0 2.7  
Since 1 September snowfall 0.0 2.7  
Snow Depth 0.00 in    
Sea Level Pressure  
Sea Level Pressure 30.08 in    
Wind  
Wind Speed 4 mph (NNW)    
Max Wind Speed 10 mph    
Max Gust Speed 21 mph    
Visibility 10 miles    
Events      
T = Trace of Precipitation, MM = Missing Value Source: NWS Daily Summary

Daily Weather History Graph

Daily Weather History Graph

Search for Another Location

Airport or City:

Trip Planner

Search our weather history database for the weather conditions in past years. The results will help you decide how hot, cold, wet, or windy it might be!

Date:

Astronomy

Sep. 30, 2012 Rise Set
Actual Time 7:11 AM MDT 6:56 PM MDT
Civil Twilight 6:43 AM MDT 7:25 PM MDT
Nautical Twilight 6:10 AM MDT 7:57 PM MDT
Astronomical Twilight 5:37 AM MDT 8:31 PM MDT
Moon 6:59 PM MDT (9/30) 7:47 AM MDT (9/30)
Length of Visible Light 12h 41m
Length of Day
11h 45m
Full, 100% of the Moon is Illuminated
Sep 30
Full
Oct 8
Last Quarter
Oct 15
New
Oct 21
First Quarter
Oct 29
Full

Hourly Weather History & Observations

Time (MDT) Temp. Dew Point Humidity Pressure Visibility Wind Dir Wind Speed Gust Speed Precip Events Conditions
12:53 AM 55.0 °F 33.1 °F 43% 30.07 in 10.0 mi Calm Calm - N/A   Clear
1:53 AM 53.1 °F 32.0 °F 45% 30.08 in 10.0 mi Calm Calm - N/A   Clear
2:53 AM 54.0 °F 32.0 °F 43% 30.08 in 10.0 mi SW 3.5 mph - N/A   Clear
3:53 AM 52.0 °F 32.0 °F 47% 30.08 in 10.0 mi Calm Calm - N/A   Clear
4:53 AM 53.1 °F 32.0 °F 45% 30.08 in 10.0 mi Calm Calm - N/A   Clear
5:53 AM 48.9 °F 30.9 °F 50% 30.09 in 10.0 mi SSW 3.5 mph - N/A   Clear
6:53 AM 50.0 °F 32.0 °F 50% 30.11 in 10.0 mi Calm Calm - N/A   Clear
7:53 AM 48.0 °F 32.0 °F 54% 30.14 in 10.0 mi North 4.6 mph - N/A   Clear
8:53 AM 55.0 °F 32.0 °F 42% 30.15 in 10.0 mi Calm Calm - N/A   Clear
9:53 AM 60.1 °F 34.0 °F 38% 30.13 in 10.0 mi Calm Calm - N/A   Clear
10:53 AM 66.0 °F 35.1 °F 32% 30.10 in 10.0 mi East 4.6 mph - N/A   Clear
11:53 AM 71.1 °F 34.0 °F 26% 30.07 in 10.0 mi East 5.8 mph - N/A   Clear
12:53 PM 73.0 °F 34.0 °F 24% 30.05 in 10.0 mi NNE 5.8 mph - N/A   Clear
1:53 PM 75.9 °F 32.0 °F 20% 30.01 in 10.0 mi East 10.4 mph - N/A   Clear
2:53 PM 75.9 °F 30.9 °F 19% 29.99 in 10.0 mi Variable 3.5 mph - N/A   Partly Cloudy
3:53 PM 77.0 °F 32.0 °F 19% 29.98 in 10.0 mi NE 6.9 mph - N/A   Partly Cloudy
4:53 PM 73.9 °F 32.0 °F 21% 29.98 in 10.0 mi South 3.5 mph - N/A   Clear
5:53 PM 75.0 °F 32.0 °F 21% 29.99 in 10.0 mi NW 3.5 mph - N/A   Clear
6:53 PM 68.0 °F 34.0 °F 28% 30.04 in 10.0 mi NE 10.4 mph - N/A   Clear
7:53 PM 63.0 °F 35.1 °F 35% 30.11 in 10.0 mi West 6.9 mph - N/A   Clear
8:53 PM 63.0 °F 35.1 °F 35% 30.15 in 10.0 mi NW 5.8 mph - N/A   Scattered Clouds
9:53 PM 62.1 °F 35.1 °F 37% 30.17 in 10.0 mi NW 4.6 mph - N/A   Mostly Cloudy
10:53 PM 59.0 °F 35.1 °F 41% 30.17 in 10.0 mi WSW 9.2 mph - N/A   Overcast
11:53 PM 57.9 °F 35.1 °F 42% 30.16 in 10.0 mi SW 9.2 mph - N/A   Clear